Year,Month,Day,Hour,Minute,Value (Times are PST for temperature in C)
2008,08,04,00,00,14.00
2008,08,04,00,01,14.00
2008,08,04,00,02,14.00
2008,08,04,00,03,14.00
2008,08,04,00,04,14.00
2008,08,04,00,05,14.00
2008,08,04,00,06,13.90
2008,08,04,00,07,13.90
2008,08,04,00,08,13.90
2008,08,04,00,09,13.90
2008,08,04,00,10,13.90
2008,08,04,00,11,13.80
2008,08,04,00,12,13.80
2008,08,04,00,13,13.80
2008,08,04,00,14,13.80
2008,08,04,00,15,13.80
2008,08,04,00,16,13.70
2008,08,04,00,17,13.70
2008,08,04,00,18,13.70
2008,08,04,00,19,13.70
2008,08,04,00,20,13.70
2008,08,04,00,21,13.70
2008,08,04,00,22,13.70
2008,08,04,00,23,13.70
2008,08,04,00,24,13.70
2008,08,04,00,25,13.70
2008,08,04,00,26,13.70
2008,08,04,00,27,13.70
2008,08,04,00,28,13.60
2008,08,04,00,29,13.60
2008,08,04,00,30,13.60
2008,08,04,00,31,13.60
2008,08,04,00,32,13.60
2008,08,04,00,33,13.60
2008,08,04,00,34,13.50
2008,08,04,00,35,13.50
2008,08,04,00,36,13.50
2008,08,04,00,37,13.50
2008,08,04,00,38,13.40
2008,08,04,00,39,13.30
2008,08,04,00,40,13.30
2008,08,04,00,41,13.30
2008,08,04,00,42,13.30
2008,08,04,00,43,13.20
2008,08,04,00,44,13.20
2008,08,04,00,45,13.10
2008,08,04,00,46,13.00
2008,08,04,00,47,13.00
2008,08,04,00,48,12.90
2008,08,04,00,49,12.80
2008,08,04,00,50,12.80
2008,08,04,00,51,12.80
2008,08,04,00,52,12.70
2008,08,04,00,53,12.70
2008,08,04,00,54,12.60
2008,08,04,00,55,12.60
2008,08,04,00,56,12.50
2008,08,04,00,57,12.50
2008,08,04,00,58,12.40
2008,08,04,00,59,12.40
2008,08,04,01,00,12.30
2008,08,04,01,01,12.30
2008,08,04,01,02,12.30
2008,08,04,01,03,12.30
2008,08,04,01,04,12.20
2008,08,04,01,05,12.20
2008,08,04,01,06,12.20
2008,08,04,01,07,12.20
2008,08,04,01,08,12.20
2008,08,04,01,09,12.20
2008,08,04,01,10,12.10
2008,08,04,01,11,12.10
2008,08,04,01,12,12.10
2008,08,04,01,13,12.10
2008,08,04,01,14,12.10
2008,08,04,01,15,12.10
2008,08,04,01,16,12.00
2008,08,04,01,17,12.00
2008,08,04,01,18,12.00
2008,08,04,01,19,12.00
2008,08,04,01,20,12.00
2008,08,04,01,21,12.00
2008,08,04,01,22,12.00
2008,08,04,01,23,12.00
2008,08,04,01,24,12.00
2008,08,04,01,25,12.00
2008,08,04,01,26,12.00
2008,08,04,01,27,12.00
2008,08,04,01,28,12.00
2008,08,04,01,29,12.00
2008,08,04,01,30,12.00
2008,08,04,01,31,12.00
2008,08,04,01,32,12.00
2008,08,04,01,33,11.90
2008,08,04,01,34,11.90
2008,08,04,01,35,11.90
2008,08,04,01,36,11.90
2008,08,04,01,37,11.90
2008,08,04,01,38,11.80
2008,08,04,01,39,11.80
2008,08,04,01,40,11.80
2008,08,04,01,41,11.80
2008,08,04,01,42,11.80
2008,08,04,01,43,11.70
2008,08,04,01,44,11.70
2008,08,04,01,45,11.70
2008,08,04,01,46,11.70
2008,08,04,01,47,11.70
2008,08,04,01,48,11.70
2008,08,04,01,49,11.60
2008,08,04,01,50,11.60
2008,08,04,01,51,11.60
2008,08,04,01,52,11.60
2008,08,04,01,53,11.60
2008,08,04,01,54,11.60
2008,08,04,01,55,11.60
2008,08,04,01,56,11.60
2008,08,04,01,57,11.60
2008,08,04,01,58,11.60
2008,08,04,01,59,11.60
2008,08,04,02,00,11.60
2008,08,04,02,01,11.60
2008,08,04,02,02,11.60
2008,08,04,02,03,11.60
2008,08,04,02,04,11.60
2008,08,04,02,05,11.60
2008,08,04,02,06,11.60
2008,08,04,02,07,11.50
2008,08,04,02,08,11.40
2008,08,04,02,09,11.40
2008,08,04,02,10,11.40
2008,08,04,02,11,11.40
2008,08,04,02,12,11.40
2008,08,04,02,13,11.40
2008,08,04,02,14,11.40
2008,08,04,02,15,11.40
2008,08,04,02,16,11.40
2008,08,04,02,17,11.40
2008,08,04,02,18,11.40
2008,08,04,02,19,11.40
2008,08,04,02,20,11.40
2008,08,04,02,21,11.40
2008,08,04,02,22,11.40
2008,08,04,02,23,11.40
2008,08,04,02,24,11.40
2008,08,04,02,25,11.40
2008,08,04,02,26,11.40
2008,08,04,02,27,11.40
2008,08,04,02,28,11.40
2008,08,04,02,29,11.40
2008,08,04,02,30,11.40
2008,08,04,02,31,11.40
2008,08,04,02,32,11.40
2008,08,04,02,33,11.40
2008,08,04,02,34,11.40
2008,08,04,02,35,11.30
2008,08,04,02,36,11.30
2008,08,04,02,37,11.30
2008,08,04,02,38,11.30
2008,08,04,02,39,11.30
2008,08,04,02,40,11.20
2008,08,04,02,41,11.20
2008,08,04,02,42,11.20
2008,08,04,02,43,11.20
2008,08,04,02,44,11.20
2008,08,04,02,45,11.20
2008,08,04,02,46,11.10
2008,08,04,02,47,11.10
2008,08,04,02,48,11.10
2008,08,04,02,49,11.10
2008,08,04,02,50,11.10
2008,08,04,02,51,11.10
2008,08,04,02,52,11.10
2008,08,04,02,53,11.10
2008,08,04,02,54,11.10
2008,08,04,02,55,11.10
2008,08,04,02,56,11.10
2008,08,04,02,57,11.10
2008,08,04,02,58,11.10
2008,08,04,02,59,11.10
2008,08,04,03,00,11.10
2008,08,04,03,01,11.10
2008,08,04,03,02,11.10
2008,08,04,03,03,11.00
2008,08,04,03,04,10.90
2008,08,04,03,05,10.90
2008,08,04,03,06,11.00
2008,08,04,03,07,11.10
2008,08,04,03,08,11.10
2008,08,04,03,09,11.10
2008,08,04,03,10,11.10
2008,08,04,03,11,11.10
2008,08,04,03,12,11.10
2008,08,04,03,13,11.10
2008,08,04,03,14,11.00
2008,08,04,03,15,10.90
2008,08,04,03,16,10.90
2008,08,04,03,17,10.90
2008,08,04,03,18,10.90
2008,08,04,03,19,10.90
2008,08,04,03,20,10.80
2008,08,04,03,21,10.80
2008,08,04,03,22,10.80
2008,08,04,03,23,10.80
2008,08,04,03,24,10.80
2008,08,04,03,25,10.80
2008,08,04,03,26,10.80
2008,08,04,03,27,10.80
2008,08,04,03,28,10.80
2008,08,04,03,29,10.70
2008,08,04,03,30,10.70
2008,08,04,03,31,10.80
2008,08,04,03,32,10.80
2008,08,04,03,33,10.80
2008,08,04,03,34,10.80
2008,08,04,03,35,10.80
2008,08,04,03,36,10.80
2008,08,04,03,37,10.70
2008,08,04,03,38,10.70
2008,08,04,03,39,10.70
2008,08,04,03,40,10.70
2008,08,04,03,41,10.70
2008,08,04,03,42,10.70
2008,08,04,03,43,10.70
2008,08,04,03,44,10.60
2008,08,04,03,45,10.60
2008,08,04,03,46,10.60
2008,08,04,03,47,10.60
2008,08,04,03,48,10.60
2008,08,04,03,49,10.60
2008,08,04,03,50,10.60
2008,08,04,03,51,10.60
2008,08,04,03,52,10.60
2008,08,04,03,53,10.60
2008,08,04,03,54,10.60
2008,08,04,03,55,10.60
2008,08,04,03,56,10.60
2008,08,04,03,57,10.60
2008,08,04,03,58,10.50
2008,08,04,03,59,10.40
2008,08,04,04,00,10.40
2008,08,04,04,01,10.40
2008,08,04,04,02,10.40
2008,08,04,04,03,10.40
2008,08,04,04,04,10.40
2008,08,04,04,05,10.40
2008,08,04,04,06,10.40
2008,08,04,04,07,10.40
2008,08,04,04,08,10.40
2008,08,04,04,09,10.40
2008,08,04,04,10,10.40
2008,08,04,04,11,10.40
2008,08,04,04,12,10.30
2008,08,04,04,13,10.30
2008,08,04,04,14,10.30
2008,08,04,04,15,10.30
2008,08,04,04,16,10.30
2008,08,04,04,17,10.30
2008,08,04,04,18,10.30
2008,08,04,04,19,10.20
2008,08,04,04,20,10.20
2008,08,04,04,21,10.20
2008,08,04,04,22,10.20
2008,08,04,04,23,10.20
2008,08,04,04,24,10.20
2008,08,04,04,25,10.20
2008,08,04,04,26,10.10
2008,08,04,04,27,10.10
2008,08,04,04,28,10.10
2008,08,04,04,29,10.10
2008,08,04,04,30,10.10
2008,08,04,04,31,10.10
2008,08,04,04,32,10.10
2008,08,04,04,33,10.10
2008,08,04,04,34,10.10
2008,08,04,04,35,10.10
2008,08,04,04,36,10.10
2008,08,04,04,37,10.10
2008,08,04,04,38,10.10
2008,08,04,04,39,10.10
2008,08,04,04,40,10.10
2008,08,04,04,41,10.10
2008,08,04,04,42,10.10
2008,08,04,04,43,10.10
2008,08,04,04,44,10.10
2008,08,04,04,45,10.10
2008,08,04,04,46,10.10
2008,08,04,04,47,10.10
2008,08,04,04,48,10.10
2008,08,04,04,49,10.10
2008,08,04,04,50,9.90
2008,08,04,04,51,9.90
2008,08,04,04,52,9.90
2008,08,04,04,53,9.90
2008,08,04,04,54,9.90
2008,08,04,04,55,9.90
2008,08,04,04,56,9.90
2008,08,04,04,57,9.90
2008,08,04,04,58,9.90
2008,08,04,04,59,9.90
2008,08,04,05,00,9.90
2008,08,04,05,01,9.90
2008,08,04,05,02,9.90
2008,08,04,05,03,9.90
2008,08,04,05,04,9.90
2008,08,04,05,05,9.90
2008,08,04,05,06,9.90
2008,08,04,05,07,9.90
2008,08,04,05,08,9.90
2008,08,04,05,09,9.90
2008,08,04,05,10,9.90
2008,08,04,05,11,9.90
2008,08,04,05,12,9.90
2008,08,04,05,13,9.90
2008,08,04,05,14,9.90
2008,08,04,05,15,9.90
2008,08,04,05,16,9.90
2008,08,04,05,17,9.90
2008,08,04,05,18,9.90
2008,08,04,05,19,9.90
2008,08,04,05,20,9.90
2008,08,04,05,21,9.90
2008,08,04,05,22,9.90
2008,08,04,05,23,9.80
2008,08,04,05,24,9.80
2008,08,04,05,25,9.80
2008,08,04,05,26,9.80
2008,08,04,05,27,9.80
2008,08,04,05,28,9.80
2008,08,04,05,29,9.80
2008,08,04,05,30,9.70
2008,08,04,05,31,9.70
2008,08,04,05,32,9.70
2008,08,04,05,33,9.70
2008,08,04,05,34,9.70
2008,08,04,05,35,9.70
2008,08,04,05,36,9.70
2008,08,04,05,37,9.80
2008,08,04,05,38,9.80
2008,08,04,05,39,9.80
2008,08,04,05,40,9.70
2008,08,04,05,41,9.70
2008,08,04,05,42,9.70
2008,08,04,05,43,9.70
2008,08,04,05,44,9.80
2008,08,04,05,45,9.80
2008,08,04,05,46,9.70
2008,08,04,05,47,9.70
2008,08,04,05,48,9.70
2008,08,04,05,49,9.70
2008,08,04,05,50,9.70
2008,08,04,05,51,9.70
2008,08,04,05,52,9.70
2008,08,04,05,53,9.70
2008,08,04,05,54,9.70
2008,08,04,05,55,9.70
2008,08,04,05,56,9.70
2008,08,04,05,57,9.70
2008,08,04,05,58,9.70
2008,08,04,05,59,9.70
2008,08,04,06,00,9.70
2008,08,04,06,01,9.70
2008,08,04,06,02,9.70
2008,08,04,06,03,9.70
2008,08,04,06,04,9.70
2008,08,04,06,05,9.70
2008,08,04,06,06,9.70
2008,08,04,06,07,9.70
2008,08,04,06,08,9.70
2008,08,04,06,09,9.70
2008,08,04,06,10,9.70
2008,08,04,06,11,9.80
2008,08,04,06,12,9.80
2008,08,04,06,13,9.80
2008,08,04,06,14,9.80
2008,08,04,06,15,9.80
2008,08,04,06,16,9.80
2008,08,04,06,17,9.80
2008,08,04,06,18,9.80
2008,08,04,06,19,9.80
2008,08,04,06,20,9.80
2008,08,04,06,21,9.80
2008,08,04,06,22,9.80
2008,08,04,06,23,9.80
2008,08,04,06,24,9.80
2008,08,04,06,25,9.90
2008,08,04,06,26,9.90
2008,08,04,06,27,9.90
2008,08,04,06,28,9.90
2008,08,04,06,29,9.90
2008,08,04,06,30,9.90
2008,08,04,06,31,9.90
2008,08,04,06,32,9.90
2008,08,04,06,33,9.90
2008,08,04,06,34,9.90
2008,08,04,06,35,9.90
2008,08,04,06,36,9.90
2008,08,04,06,37,9.90
2008,08,04,06,38,10.00
2008,08,04,06,39,10.10
2008,08,04,06,40,10.20
2008,08,04,06,41,10.20
2008,08,04,06,42,10.30
2008,08,04,06,43,10.30
2008,08,04,06,44,10.40
2008,08,04,06,45,10.40
2008,08,04,06,46,10.40
2008,08,04,06,47,10.40
2008,08,04,06,48,10.40
2008,08,04,06,49,10.40
2008,08,04,06,50,10.40
2008,08,04,06,51,10.40
2008,08,04,06,52,10.40
2008,08,04,06,53,10.40
2008,08,04,06,54,10.40
2008,08,04,06,55,10.50
2008,08,04,06,56,10.60
2008,08,04,06,57,10.60
2008,08,04,06,58,10.60
2008,08,04,06,59,10.60
2008,08,04,07,00,10.70
2008,08,04,07,01,10.70
2008,08,04,07,02,10.70
2008,08,04,07,03,10.70
2008,08,04,07,04,10.70
2008,08,04,07,05,10.70
2008,08,04,07,06,10.80
2008,08,04,07,07,10.80
2008,08,04,07,08,10.80
2008,08,04,07,09,10.80
2008,08,04,07,10,10.90
2008,08,04,07,11,10.90
2008,08,04,07,12,10.90
2008,08,04,07,13,10.90
2008,08,04,07,14,10.90
2008,08,04,07,15,10.90
2008,08,04,07,16,10.90
2008,08,04,07,17,11.00
2008,08,04,07,18,11.10
2008,08,04,07,19,11.10
2008,08,04,07,20,11.10
2008,08,04,07,21,11.10
2008,08,04,07,22,11.20
2008,08,04,07,23,11.20
2008,08,04,07,24,11.20
2008,08,04,07,25,11.30
2008,08,04,07,26,11.30
2008,08,04,07,27,11.40
2008,08,04,07,28,11.40
2008,08,04,07,29,11.50
2008,08,04,07,30,11.60
2008,08,04,07,31,11.60
2008,08,04,07,32,11.70
2008,08,04,07,33,11.80
2008,08,04,07,34,11.80
2008,08,04,07,35,11.90
2008,08,04,07,36,11.90
2008,08,04,07,37,12.00
2008,08,04,07,38,12.00
2008,08,04,07,39,12.10
2008,08,04,07,40,12.20
2008,08,04,07,41,12.30
2008,08,04,07,42,12.30
2008,08,04,07,43,12.40
2008,08,04,07,44,12.50
2008,08,04,07,45,12.60
2008,08,04,07,46,12.70
2008,08,04,07,47,12.80
2008,08,04,07,48,12.90
2008,08,04,07,49,13.00
2008,08,04,07,50,13.10
2008,08,04,07,51,13.10
2008,08,04,07,52,13.20
2008,08,04,07,53,13.30
2008,08,04,07,54,13.40
2008,08,04,07,55,13.50
2008,08,04,07,56,13.60
2008,08,04,07,57,13.70
2008,08,04,07,58,13.70
2008,08,04,07,59,13.70
2008,08,04,08,00,13.70
2008,08,04,08,01,13.80
2008,08,04,08,02,13.80
2008,08,04,08,03,13.90
2008,08,04,08,04,13.90
2008,08,04,08,05,13.90
2008,08,04,08,06,14.00
2008,08,04,08,07,14.00
2008,08,04,08,08,14.10
2008,08,04,08,09,14.20
2008,08,04,08,10,14.20
2008,08,04,08,11,14.30
2008,08,04,08,12,14.50
2008,08,04,08,13,14.50
2008,08,04,08,14,14.60
2008,08,04,08,15,14.70
2008,08,04,08,16,14.80
2008,08,04,08,17,15.00
2008,08,04,08,18,15.10
2008,08,04,08,19,15.20
2008,08,04,08,20,15.40
2008,08,04,08,21,15.50
2008,08,04,08,22,15.70
2008,08,04,08,23,15.80
2008,08,04,08,24,15.90
2008,08,04,08,25,16.00
2008,08,04,08,26,16.10
2008,08,04,08,27,16.20
2008,08,04,08,28,16.30
2008,08,04,08,29,16.40
2008,08,04,08,30,16.40
2008,08,04,08,31,16.50
2008,08,04,08,32,16.60
2008,08,04,08,33,16.60
2008,08,04,08,34,16.70
2008,08,04,08,35,16.70
2008,08,04,08,36,16.70
2008,08,04,08,37,16.70
2008,08,04,08,38,16.80
2008,08,04,08,39,16.70
2008,08,04,08,40,16.70
2008,08,04,08,41,16.80
2008,08,04,08,42,16.80
2008,08,04,08,43,16.80
2008,08,04,08,44,16.90
2008,08,04,08,45,16.90
2008,08,04,08,46,16.90
2008,08,04,08,47,16.90
2008,08,04,08,48,16.90
2008,08,04,08,49,16.90
2008,08,04,08,50,16.90
2008,08,04,08,51,16.90
2008,08,04,08,52,16.90
2008,08,04,08,53,16.90
2008,08,04,08,54,16.90
2008,08,04,08,55,17.00
2008,08,04,08,56,17.00
2008,08,04,08,57,17.00
2008,08,04,08,58,17.00
2008,08,04,08,59,17.10
2008,08,04,09,00,17.10
2008,08,04,09,01,17.20
2008,08,04,09,02,17.30
2008,08,04,09,03,17.30
2008,08,04,09,04,17.30
2008,08,04,09,05,17.30
2008,08,04,09,06,17.30
2008,08,04,09,07,17.30
2008,08,04,09,08,17.30
2008,08,04,09,09,17.30
2008,08,04,09,10,17.30
2008,08,04,09,11,17.30
2008,08,04,09,12,17.30
2008,08,04,09,13,17.30
2008,08,04,09,14,17.40
2008,08,04,09,15,17.40
2008,08,04,09,16,17.50
2008,08,04,09,17,17.50
2008,08,04,09,18,17.50
2008,08,04,09,19,17.60
2008,08,04,09,20,17.50
2008,08,04,09,21,17.50
2008,08,04,09,22,17.50
2008,08,04,09,23,17.50
2008,08,04,09,24,17.50
2008,08,04,09,25,17.60
2008,08,04,09,26,17.60
2008,08,04,09,27,17.60
2008,08,04,09,28,17.50
2008,08,04,09,29,17.60
2008,08,04,09,30,17.60
2008,08,04,09,31,17.60
2008,08,04,09,32,17.60
2008,08,04,09,33,17.60
2008,08,04,09,34,17.70
2008,08,04,09,35,17.70
2008,08,04,09,36,17.70
2008,08,04,09,37,17.80
2008,08,04,09,38,17.80
2008,08,04,09,39,17.80
2008,08,04,09,40,17.80
2008,08,04,09,41,17.90
2008,08,04,09,42,17.90
2008,08,04,09,43,18.00
2008,08,04,09,44,18.10
2008,08,04,09,45,18.20
2008,08,04,09,46,18.10
2008,08,04,09,47,18.10
2008,08,04,09,48,18.10
2008,08,04,09,49,18.10
2008,08,04,09,50,18.10
2008,08,04,09,51,18.10
2008,08,04,09,52,18.10
2008,08,04,09,53,18.10
2008,08,04,09,54,18.10
2008,08,04,09,55,18.20
2008,08,04,09,56,18.20
2008,08,04,09,57,18.20
2008,08,04,09,58,18.20
2008,08,04,09,59,18.20
2008,08,04,10,00,18.20
2008,08,04,10,01,18.30
2008,08,04,10,02,18.40
2008,08,04,10,03,18.50
2008,08,04,10,04,18.50
2008,08,04,10,05,18.60
2008,08,04,10,06,18.70
2008,08,04,10,07,18.70
2008,08,04,10,08,18.80
2008,08,04,10,09,18.80
2008,08,04,10,10,18.90
2008,08,04,10,11,18.90
2008,08,04,10,12,18.80
2008,08,04,10,13,18.80
2008,08,04,10,14,18.70
2008,08,04,10,15,18.70
2008,08,04,10,16,18.70
2008,08,04,10,17,18.70
2008,08,04,10,18,18.80
2008,08,04,10,19,18.80
2008,08,04,10,20,18.90
2008,08,04,10,21,18.90
2008,08,04,10,22,18.90
2008,08,04,10,23,19.00
2008,08,04,10,24,19.10
2008,08,04,10,25,19.10
2008,08,04,10,26,19.10
2008,08,04,10,27,19.20
2008,08,04,10,28,19.30
2008,08,04,10,29,19.30
2008,08,04,10,30,19.40
2008,08,04,10,31,19.40
2008,08,04,10,32,19.40
2008,08,04,10,33,19.30
2008,08,04,10,34,19.20
2008,08,04,10,35,19.20
2008,08,04,10,36,19.20
2008,08,04,10,37,19.20
2008,08,04,10,38,19.20
2008,08,04,10,39,19.20
2008,08,04,10,40,19.10
2008,08,04,10,41,19.20
2008,08,04,10,42,19.20
2008,08,04,10,43,19.20
2008,08,04,10,44,19.30
2008,08,04,10,45,19.30
2008,08,04,10,46,19.40
2008,08,04,10,47,19.40
2008,08,04,10,48,19.50
2008,08,04,10,49,19.50
2008,08,04,10,50,19.50
2008,08,04,10,51,19.50
2008,08,04,10,52,19.60
2008,08,04,10,53,19.70
2008,08,04,10,54,19.80
2008,08,04,10,55,19.90
2008,08,04,10,56,19.90
2008,08,04,10,57,19.90
2008,08,04,10,58,19.90
2008,08,04,10,59,19.90
2008,08,04,11,00,19.90
2008,08,04,11,01,19.90
2008,08,04,11,02,19.90
2008,08,04,11,03,19.90
2008,08,04,11,04,19.80
2008,08,04,11,05,19.80
2008,08,04,11,06,19.80
2008,08,04,11,07,19.80
2008,08,04,11,08,19.80
2008,08,04,11,09,19.90
2008,08,04,11,10,19.90
2008,08,04,11,11,19.90
2008,08,04,11,12,19.90
2008,08,04,11,13,19.90
2008,08,04,11,14,19.90
2008,08,04,11,15,19.90
2008,08,04,11,16,19.90
2008,08,04,11,17,19.90
2008,08,04,11,18,20.00
2008,08,04,11,19,20.10
2008,08,04,11,20,20.10
2008,08,04,11,21,20.10
2008,08,04,11,22,20.10
2008,08,04,11,23,20.10
2008,08,04,11,24,20.20
2008,08,04,11,25,20.20
2008,08,04,11,26,20.30
2008,08,04,11,27,20.40
2008,08,04,11,28,20.40
2008,08,04,11,29,20.40
2008,08,04,11,30,20.50
2008,08,04,11,31,20.50
2008,08,04,11,32,20.50
2008,08,04,11,33,20.50
2008,08,04,11,34,20.50
2008,08,04,11,35,20.40
2008,08,04,11,36,20.40
2008,08,04,11,37,20.30
2008,08,04,11,38,20.40
2008,08,04,11,39,20.40
2008,08,04,11,40,20.40
2008,08,04,11,41,20.30
2008,08,04,11,42,20.30
2008,08,04,11,43,20.30
2008,08,04,11,44,20.20
2008,08,04,11,45,20.20
2008,08,04,11,46,20.20
2008,08,04,11,47,20.40
2008,08,04,11,48,20.40
2008,08,04,11,49,20.50
2008,08,04,11,50,20.50
2008,08,04,11,51,20.50
2008,08,04,11,52,20.60
2008,08,04,11,53,20.60
2008,08,04,11,54,20.70
2008,08,04,11,55,20.70
2008,08,04,11,56,20.60
2008,08,04,11,57,20.60
2008,08,04,11,58,20.60
2008,08,04,11,59,20.60
2008,08,04,12,00,20.70
2008,08,04,12,01,20.80
2008,08,04,12,02,20.80
2008,08,04,12,03,20.80
2008,08,04,12,04,20.80
2008,08,04,12,05,20.80
2008,08,04,12,06,20.80
2008,08,04,12,07,20.80
2008,08,04,12,08,20.80
2008,08,04,12,09,20.70
2008,08,04,12,10,20.70
2008,08,04,12,11,20.60
2008,08,04,12,12,20.70
2008,08,04,12,13,20.70
2008,08,04,12,14,20.80
2008,08,04,12,15,20.80
2008,08,04,12,16,20.80
2008,08,04,12,17,20.80
2008,08,04,12,18,20.80
2008,08,04,12,19,20.80
2008,08,04,12,20,20.80
2008,08,04,12,21,20.90
2008,08,04,12,22,21.00
2008,08,04,12,23,21.00
2008,08,04,12,24,20.90
2008,08,04,12,25,21.00
2008,08,04,12,26,21.00
2008,08,04,12,27,21.10
2008,08,04,12,28,21.20
2008,08,04,12,29,21.30
2008,08,04,12,30,21.40
2008,08,04,12,31,21.50
2008,08,04,12,32,21.60
2008,08,04,12,33,21.60
2008,08,04,12,34,21.60
2008,08,04,12,35,21.70
2008,08,04,12,36,21.80
2008,08,04,12,37,21.80
2008,08,04,12,38,21.90
2008,08,04,12,39,21.90
2008,08,04,12,40,22.00
2008,08,04,12,41,22.10
2008,08,04,12,42,22.10
2008,08,04,12,43,22.10
2008,08,04,12,44,22.20
2008,08,04,12,45,22.20
2008,08,04,12,46,22.00
2008,08,04,12,47,22.00
2008,08,04,12,48,21.90
2008,08,04,12,49,21.80
2008,08,04,12,50,21.70
2008,08,04,12,51,21.60
2008,08,04,12,52,21.60
2008,08,04,12,53,21.60
2008,08,04,12,54,21.60
2008,08,04,12,55,21.60
2008,08,04,12,56,21.60
2008,08,04,12,57,21.60
2008,08,04,12,58,21.60
2008,08,04,12,59,21.60
2008,08,04,13,00,21.60
2008,08,04,13,01,21.60
2008,08,04,13,02,21.60
2008,08,04,13,03,21.60
2008,08,04,13,04,21.60
2008,08,04,13,05,21.60
2008,08,04,13,06,21.60
2008,08,04,13,07,21.60
2008,08,04,13,08,21.60
2008,08,04,13,09,21.60
2008,08,04,13,10,21.70
2008,08,04,13,11,21.80
2008,08,04,13,12,21.80
2008,08,04,13,13,21.90
2008,08,04,13,14,21.90
2008,08,04,13,15,21.90
2008,08,04,13,16,22.00
2008,08,04,13,17,22.20
2008,08,04,13,18,22.20
2008,08,04,13,19,22.30
2008,08,04,13,20,22.30
2008,08,04,13,21,22.40
2008,08,04,13,22,22.50
2008,08,04,13,23,22.50
2008,08,04,13,24,22.50
2008,08,04,13,25,22.50
2008,08,04,13,26,22.50
2008,08,04,13,27,22.60
2008,08,04,13,28,22.70
2008,08,04,13,29,22.70
2008,08,04,13,30,22.80
2008,08,04,13,31,22.90
2008,08,04,13,32,22.90
2008,08,04,13,33,22.90
2008,08,04,13,34,22.90
2008,08,04,13,35,22.90
2008,08,04,13,36,22.90
2008,08,04,13,37,22.80
2008,08,04,13,38,22.70
2008,08,04,13,39,22.60
2008,08,04,13,40,22.50
2008,08,04,13,41,22.40
2008,08,04,13,42,22.30
2008,08,04,13,43,22.30
2008,08,04,13,44,22.30
2008,08,04,13,45,22.40
2008,08,04,13,46,22.40
2008,08,04,13,47,22.30
2008,08,04,13,48,22.30
2008,08,04,13,49,22.30
2008,08,04,13,50,22.40
2008,08,04,13,51,22.40
2008,08,04,13,52,22.40
2008,08,04,13,53,22.40
2008,08,04,13,54,22.50
2008,08,04,13,55,22.50
2008,08,04,13,56,22.50
2008,08,04,13,57,22.40
2008,08,04,13,58,22.40
2008,08,04,13,59,22.40
2008,08,04,14,00,22.40
2008,08,04,14,01,22.40
2008,08,04,14,02,22.30
2008,08,04,14,03,22.30
2008,08,04,14,04,22.40
2008,08,04,14,05,22.40
2008,08,04,14,06,22.50
2008,08,04,14,07,22.50
2008,08,04,14,08,22.60
2008,08,04,14,09,22.60
2008,08,04,14,10,22.70
2008,08,04,14,11,22.80
2008,08,04,14,12,22.90
2008,08,04,14,13,22.90
2008,08,04,14,14,22.90
2008,08,04,14,15,23.00
2008,08,04,14,16,23.10
2008,08,04,14,17,23.00
2008,08,04,14,18,23.10
2008,08,04,14,19,23.10
2008,08,04,14,20,23.10
2008,08,04,14,21,23.10
2008,08,04,14,22,23.10
2008,08,04,14,23,23.10
2008,08,04,14,24,23.30
2008,08,04,14,25,23.30
2008,08,04,14,26,23.30
2008,08,04,14,27,23.30
2008,08,04,14,28,23.30
2008,08,04,14,29,23.20
2008,08,04,14,30,23.20
2008,08,04,14,31,23.20
2008,08,04,14,32,23.20
2008,08,04,14,33,23.20
2008,08,04,14,34,23.20
2008,08,04,14,35,23.10
2008,08,04,14,36,23.10
2008,08,04,14,37,23.10
2008,08,04,14,38,23.20
2008,08,04,14,39,23.20
2008,08,04,14,40,23.30
2008,08,04,14,41,23.30
2008,08,04,14,42,23.40
2008,08,04,14,43,23.50
2008,08,04,14,44,23.50
2008,08,04,14,45,23.40
2008,08,04,14,46,23.30
2008,08,04,14,47,23.40
2008,08,04,14,48,23.40
2008,08,04,14,49,23.40
2008,08,04,14,50,23.40
2008,08,04,14,51,23.40
2008,08,04,14,52,23.40
2008,08,04,14,53,23.30
2008,08,04,14,54,23.30
2008,08,04,14,55,23.30
2008,08,04,14,56,23.30
2008,08,04,14,57,23.30
2008,08,04,14,58,23.40
2008,08,04,14,59,23.50
2008,08,04,15,00,23.60
2008,08,04,15,01,23.60
2008,08,04,15,02,23.60
2008,08,04,15,03,23.70
2008,08,04,15,04,23.60
2008,08,04,15,05,23.50
2008,08,04,15,06,23.40
2008,08,04,15,07,23.30
2008,08,04,15,08,23.30
2008,08,04,15,09,23.30
2008,08,04,15,10,23.30
2008,08,04,15,11,23.20
2008,08,04,15,12,23.20
2008,08,04,15,13,23.20
2008,08,04,15,14,23.30
2008,08,04,15,15,23.30
2008,08,04,15,16,23.20
2008,08,04,15,17,23.20
2008,08,04,15,18,23.20
2008,08,04,15,19,23.20
2008,08,04,15,20,23.20
2008,08,04,15,21,23.30
2008,08,04,15,22,23.30
2008,08,04,15,23,23.30
2008,08,04,15,24,23.40
2008,08,04,15,25,23.50
2008,08,04,15,26,23.60
2008,08,04,15,27,23.70
2008,08,04,15,28,23.70
2008,08,04,15,29,23.80
2008,08,04,15,30,24.00
2008,08,04,15,31,24.10
2008,08,04,15,32,24.10
2008,08,04,15,33,24.20
2008,08,04,15,34,24.20
2008,08,04,15,35,24.20
2008,08,04,15,36,24.10
2008,08,04,15,37,24.10
2008,08,04,15,38,24.10
2008,08,04,15,39,24.10
2008,08,04,15,40,24.00
2008,08,04,15,41,23.90
2008,08,04,15,42,23.90
2008,08,04,15,43,23.90
2008,08,04,15,44,24.00
2008,08,04,15,45,24.10
2008,08,04,15,46,24.20
2008,08,04,15,47,24.20
2008,08,04,15,48,24.20
2008,08,04,15,49,24.10
2008,08,04,15,50,24.10
2008,08,04,15,51,24.00
2008,08,04,15,52,23.80
2008,08,04,15,53,23.80
2008,08,04,15,54,23.80
2008,08,04,15,55,23.80
2008,08,04,15,56,23.90
2008,08,04,15,57,24.00
2008,08,04,15,58,23.90
2008,08,04,15,59,23.90
2008,08,04,16,00,23.90
2008,08,04,16,01,24.10
2008,08,04,16,02,24.10
2008,08,04,16,03,24.10
2008,08,04,16,04,24.00
2008,08,04,16,05,23.90
2008,08,04,16,06,23.90
2008,08,04,16,07,23.90
2008,08,04,16,08,23.90
2008,08,04,16,09,24.00
2008,08,04,16,10,24.10
2008,08,04,16,11,24.20
2008,08,04,16,12,24.40
2008,08,04,16,13,24.40
2008,08,04,16,14,24.40
2008,08,04,16,15,24.30
2008,08,04,16,16,24.30
2008,08,04,16,17,24.30
2008,08,04,16,18,24.30
2008,08,04,16,19,24.30
2008,08,04,16,20,24.20
2008,08,04,16,21,24.20
2008,08,04,16,22,24.20
2008,08,04,16,23,24.20
2008,08,04,16,24,24.10
2008,08,04,16,25,24.10
2008,08,04,16,26,24.10
2008,08,04,16,27,24.10
2008,08,04,16,28,24.10
2008,08,04,16,29,24.20
2008,08,04,16,30,24.20
2008,08,04,16,31,24.30
2008,08,04,16,32,24.30
2008,08,04,16,33,24.30
2008,08,04,16,34,24.40
2008,08,04,16,35,24.30
2008,08,04,16,36,24.30
2008,08,04,16,37,24.40
2008,08,04,16,38,24.40
2008,08,04,16,39,24.30
2008,08,04,16,40,24.20
2008,08,04,16,41,24.20
2008,08,04,16,42,24.20
2008,08,04,16,43,24.10
2008,08,04,16,44,24.20
2008,08,04,16,45,24.20
2008,08,04,16,46,24.20
2008,08,04,16,47,24.20
2008,08,04,16,48,24.20
2008,08,04,16,49,24.20
2008,08,04,16,50,24.30
2008,08,04,16,51,24.30
2008,08,04,16,52,24.40
2008,08,04,16,53,24.40
2008,08,04,16,54,24.40
2008,08,04,16,55,24.40
2008,08,04,16,56,24.40
2008,08,04,16,57,24.40
2008,08,04,16,58,24.50
2008,08,04,16,59,24.50
2008,08,04,17,00,24.50
2008,08,04,17,01,24.50
2008,08,04,17,02,24.50
2008,08,04,17,03,24.60
2008,08,04,17,04,24.60
2008,08,04,17,05,24.60
2008,08,04,17,06,24.70
2008,08,04,17,07,24.70
2008,08,04,17,08,24.80
2008,08,04,17,09,24.80
2008,08,04,17,10,24.70
2008,08,04,17,11,24.70
2008,08,04,17,12,24.70
2008,08,04,17,13,24.80
2008,08,04,17,14,24.80
2008,08,04,17,15,24.80
2008,08,04,17,16,24.90
2008,08,04,17,17,24.90
2008,08,04,17,18,25.00
2008,08,04,17,19,25.10
2008,08,04,17,20,25.00
2008,08,04,17,21,25.10
2008,08,04,17,22,25.00
2008,08,04,17,23,25.10
2008,08,04,17,24,25.10